Simultaneous Nadir Overpasses (SNOs) Predictions

Prediction of SNOs between GOES-15 and METOP-C Satellite Orbit:

Table of predicted SNOs for the next 14.0 days since TLE Epoch: 10/16/2021
Index Date Time (GOES-15) GOES-15 Lat,Lon METOP-C Lat,Lon Distance(km) Time Diff (sec)
1 10/16/2021 06:17:35 0.35,-128.16 -0.49,-131.93 428.92 80
2 10/17/2021 05:59:36 0.34,-128.19 0.65,-126.94 142.74 80
3 10/18/2021 18:15:49 -0.35,-128.22 0.36,-131.50 373.48 80
4 10/19/2021 17:57:49 -0.34,-128.24 -0.71,-126.50 198.17 80
5 10/21/2021 06:16:51 0.35,-128.28 -0.27,-131.11 322.06 80
6 10/22/2021 05:56:12 0.34,-128.29 0.81,-126.10 249.17 80
7 10/23/2021 18:12:25 -0.34,-128.32 0.15,-130.68 268.08 80
8 10/24/2021 17:54:26 -0.34,-128.33 -0.92,-125.67 302.85 80
9 10/26/2021 06:13:27 0.34,-128.36 -0.10,-130.27 218.14 80
10 10/27/2021 05:52:49 0.33,-128.37 1.04,-125.28 352.28 80
11 10/28/2021 18:09:01 -0.33,-128.38 -0.00,-129.84 166.29 80
12 10/29/2021 17:51:02 -0.32,-128.39 -1.14,-124.85 403.92 80
